www.pogodaiklimat.ru

Погода и климат >> Архив погоды >> Россия >> Якутия >> Иэма


ПОГОДА в Иэме

  • Прогноз погоды в Иэме
  • Монитор погоды в Иэме

АРХИВ ПОГОДЫ в Иэме

Время (UTC), дата Ветер
(напр.,м/с)
 
Видим.   Явления Облачность Т
(С)
Тd
(С)
f
(%)
Тe
(С)
Тes
(С)
Комфортность P
(гПа)
Po
(гПа)
Тmin
(С)
Tmax
(С)
R
(мм)
R24
(мм)
S
(см)
18 12.01 штиль 0 50 км {снег} 3/0
[As op]
-44.4 -47.6 70 -44 -44 опасность
обморожения
1041.2 942.2
21 12.01 штиль 0 50 км ясно -47.7 -51.2 67 -48 -48 опасность
обморожения
1043.9 943.2 -47.7 0.7 27
00 13.01 штиль 0 50 км ясно -50.2 -53.7 66 -50 -50 опасность
обморожения
1045.9 944.0 -50.4
03 13.01 штиль 0 50 км ясно -50.6 -53.7 69 -51 -51 опасность
обморожения
1046.4 944.3
06 13.01 штиль 0 50 км ясно -50.3 -53.7 67 -50 -50 опасность
обморожения
1047.0 944.9
09 13.01 штиль 0 50 км ясно -51.3 -53.7 75 -51 -51 опасность
обморожения
1048.0 945.4 -50.2
12 13.01 штиль 0 50 км ясно -53.0 -55.2 77 -53 -53 опасность
обморожения
1048.5 945.1
15 13.01 штиль 0 50 км 3/0
[Ci fib]
-52.4 -55.2 71 -52 -52 опасность
обморожения
1047.8 944.7
18 13.01 штиль 0 50 км ясно -53.5 -57.0 65 -54 -54 опасность
обморожения
1047.9 944.3
21 13.01 штиль 0 50 км ясно -53.7 -57.0 67 -54 -54 опасность
обморожения
1047.6 943.9 -54.4 27
00 14.01 штиль 0 50 км ясно -53.7 -57.0 67 -54 -54 опасность
обморожения
1047.0 943.4
03 14.01 штиль 0 50 км 3/0
[Cc]
-53.0 -55.2 77 -53 -53 опасность
обморожения
1045.7 942.5
06 14.01 штиль 0 50 км 4/0
[Cs]
-52.6 -55.2 73 -53 -53 опасность
обморожения
1044.8 941.9
09 14.01 штиль 0 50 км 4/0
[Cs]
-52.6 -55.2 73 -53 -53 опасность
обморожения
1044.8 941.9
12 14.01 штиль 0 50 км 4/0
[Ci fib]
-53.2 -57.0 63 -53 -53 опасность
обморожения
1044.4 940.9
15 14.01 штиль 0 50 км 4/0
[Ci fib]
-52.9 -55.2 76 -53 -53 опасность
обморожения
1042.8 940.0
18 14.01 штиль 0 50 км 3/0
[Ci fib]
-52.9 -55.2 76 -53 -53 опасность
обморожения
1042.0 939.3
21 14.01 штиль 0 50 км 6/0
[Ci fib]
-52.4 -55.2 71 -52 -52 опасность
обморожения
1041.2 938.8 -53.7 27
00 15.01 штиль 0 50 км 3/0
[Ci]
-52.3 -55.2 71 -52 -52 опасность
обморожения
1041.3 938.9
03 15.01 штиль 0 50 км 8/0
[Cs]
-52.5 -55.2 72 -53 -52 опасность
обморожения
1041.1 938.6
06 15.01 штиль 0 50 км 10/0
[Cs]
-51.3 -53.7 75 -51 -51 опасность
обморожения
1040.3 938.4
09 15.01 штиль 0 50 км 3/0
[Ci fib]
-51.5 -55.2 64 -52 -52 опасность
обморожения
1041.2 939.1 -51.3
12 15.01 штиль 0 50 км 10/0
[Cs]
-52.2 -55.2 70 -52 -52 опасность
обморожения
1042.6 940.1
15 15.01 штиль 0 50 км 10/0
[Cs]
-50.3 -53.7 67 -50 -50 опасность
обморожения
1041.8 940.2
18 15.01 штиль 0 50 км 4/0
[Cs]
-51.3 -53.7 75 -51 -51 опасность
обморожения
1042.8 940.6
21 15.01 штиль 0 50 км 6/0
[Cs]
-50.1 -53.7 65 -50 -50 опасность
обморожения
1042.8 941.2 -52.2 27
00 16.01 штиль 0 50 км 3/0
[Ci fib]
-52.4 -55.2 71 -52 -52 опасность
обморожения
1044.9 942.1 -52.4
03 16.01 штиль 0 50 км ясно -49.5 -52.4 71 -50 -49 опасность
обморожения
1043.7 942.3
06 16.01 штиль 0 50 км ясно -50.6 -53.7 69 -51 -51 опасность
обморожения
1044.3 942.4
09 16.01 штиль 0 50 км 3/0
[Ci fib]
-51.4 -55.2 64 -51 -51 опасность
обморожения
1045.3 942.9 -49.5
12 16.01 штиль 0 50 км 3/0
[Ci fib]
-51.6 -55.2 65 -52 -52 опасность
обморожения
1046.1 943.5
15 16.01 штиль 0 50 км ясно -52.1 -55.2 69 -52 -52 опасность
обморожения
1045.8 943.0
18 16.01 штиль 0 50 км ясно -52.3 -55.2 71 -52 -52 опасность
обморожения
1045.2 942.4
21 16.01 штиль 0 50 км ясно -52.5 -55.2 72 -53 -53 опасность
обморожения
1044.9 942.0 -52.8 27
00 17.01 штиль 0 50 км 3/0
[Ci fib]
-52.8 -55.2 75 -53 -53 опасность
обморожения
1044.1 941.2 -53.4
03 17.01 штиль 0 50 км 1/0
[Ci fib]
-50.8 -53.7 71 -51 -51 опасность
обморожения
1041.9 940.1
06 17.01 штиль 0 50 км ясно -50.8 -53.7 71 -51 -51 опасность
обморожения
1040.4 938.7
09 17.01 штиль 0 50 км ясно -51.7 -55.2 66 -52 -52 опасность
обморожения
1040.1 938.1 -50.8
12 17.01 штиль 0 50 км ясно -52.6 -55.2 73 -53 -53 опасность
обморожения
1039.7 937.4
15 17.01 штиль 0 50 км ясно -52.8 -55.2 75 -53 -53 опасность
обморожения
1038.3 936.0
18 17.01 штиль 0 50 км ясно -53.0 -55.2 77 -53 -53 опасность
обморожения
1037.4 935.1
21 17.01 штиль 0 50 км ясно -53.7 -57.0 67 -54 -54 опасность
обморожения
1037.4 934.7 -54.9 27
00 18.01 штиль 0 50 км 3/0
[Ci fib]
-53.0 -55.2 77 -53 -53 опасность
обморожения
1036.6 934.4
03 18.01 штиль 0 50 км 3/0
[Ci fib]
-51.7 -55.2 66 -52 -52 опасность
обморожения
1035.5 933.7
06 18.01 штиль 0 50 км 3/0
[Ci fib]
-51.1 -53.7 74 -51 -51 опасность
обморожения
1035.1 933.8
09 18.01 штиль 0 50 км ясно -52.6 -55.2 73 -53 -53 опасность
обморожения
1036.0 934.0 -51.1
12 18.01 штиль 0 50 км ясно -53.0 -55.2 77 -53 -53 опасность
обморожения
1036.8 934.5
15 18.01 штиль 0 50 км ясно -53.1 -57.0 62 -53 -53 опасность
обморожения
1036.7 934.4
18 18.01 штиль 0 50 км ясно -53.4 -57.0 64 -53 -53 опасность
обморожения
1037.2 934.6
21 18.01 штиль 0 50 км ясно -53.4 -57.0 64 -53 -53 опасность
обморожения
1037.4 934.9 -54.0 27
00 19.01 штиль 0 50 км 3/0
[Ci fib]
-53.4 -57.0 64 -53 -53 опасность
обморожения
1037.6 935.1
03 19.01 штиль 0 50 км ясно -51.2 -55.2 62 -51 -51 опасность
обморожения
1036.3 934.9
06 19.01 штиль 0 50 км ясно -51.2 -55.2 62 -51 -51 опасность
обморожения
1036.2 934.8
09 19.01 штиль 0 50 км ясно -52.7 -55.2 74 -53 -53 опасность
обморожения
1037.2 935.0 -51.2
12 19.01 штиль 0 50 км ясно -53.1 -57.0 62 -53 -53 опасность
обморожения
1037.1 934.7

 

Местоположение метеостанции Иэма (Якутия, Россия): широта 65.30 долгота 135.80 высота над уровнем моря 675 м.

В архиве по умолчанию представлена погода в Иэме за последнюю неделю. Архивные данные за месяц целиком и за предыдущие месяцы, начиная с января 2011 года, Вы можете получить, выбрав интересующий диапазон дат из раскрывающегося списка и нажав кнопку "Ввод!".


*Определитесь, кто Вы:
робот инопланетянин человек

Внимание! Время в таблицах - всемирное. Для получения местного времени необходимо прибавить поправку, которая равна 9 ч.

Смотрите также архив погоды в соседних городах и на ближайших метеорологических станциях:

Погода в Томпо (Якутия, Россия) (150 км)
Погода в Усть-Чарках (Якутия, Россия) (171 км)
Погода в Екюччю (Якутия, Россия) (250 км)
Погода в Батагае (Якутия, Россия) (267 км)
Погода в Себян-Кюеле (Якутия, Россия) (269 км)
Погода в Верхоянске (Якутия, Россия) (274 км)
Погода в Крест-Хальджае (Якутия, Россия) (284 км)
Погода в Теплом Ключе (Якутия, Россия) (284 км)
Погода в Верхоянском Перевозе (Якутия, Россия) (286 км)
Погода в Восточной (Якутия, Россия) (294 км)

Пояснения к столбцам:

Ветер - указаны скорость ветра в м/с - средняя за 10 мин, порывы в срок и между сроками (в фигурных скобках) и направление, откуда дует ветер: С - северный, СВ - северо-восточный, В - восточный, ЮВ - юго-восточный, Ю - южный, ЮЗ - юго-западный, З - западный, СЗ - северо-западный.
Видимость - горизонтальная дальность видимости в метрах или километрах. При видимости от 1 до 10 км при отсутствии осадков обычно наблюдается дымка, при ухудшении видимости до 1 км и менее - туман. В сухую погоду видимость может ухудшаться дымом, пылью или мглою.
Явления - указаны атмосферные явления, наблюдавшиеся в срок или в последний час перед сроком; фигурными скобками обозначены явления, наблюдавшиеся между сроками (за 1-3 часа до срока); квадратными скобками обозначены град или гололедные отложения с указанием их диаметра в мм.
Облачность - указаны через наклонную черту общая и нижняя облачность в баллах и высота нижней границы облаков в метрах; квадратными скобками обозначены формы облаков: Ci - перистые, Cs - перисто-слоистые, Cc - перисто-кучевые, Ac - высококучевые, As - высокослоистые, Sc - слоисто-кучевые, Ns - слоисто-дождевые, Cu - кучевые, Cb - кучево-дождевые. Подробнее классификацию облаков см. в Атласе облаков (PDF).
T - Температура воздуха - температура, измеренная на высоте 2 м над землей.
Td - Температура точки росы - температура, при понижении до которой содержащийся в воздухе водяной пар достигнет насыщения.
f - Относительная влажность воздуха - влажноcть воздуха, измеренная на высоте 2 м над землей.
Te - Эффективная температура - температура, которую ощущает одетый по сезону человек в тени. Характеристика душности погоды. При расчете учитывается влияние влажности воздуха и скорости ветра на теплоощущения человека.
Tes - Эффективная температура на солнце - температура, которую ощущает человек, с поправкой на солнечный нагрев. Характеристика знойности погоды. Зависит от высоты солнца над горизонтом, облачности и скорости ветра. Ночью, в пасмурную погоду, а также при ветре 12 м/с и более поправка равна нулю.
P - Атмосферное давление - приведенное к уровню моря атмосферное давление.
Po - Атмосферное давление - измеренное на уровне метеостанции атмосферное давление.
Tmin - Минимальная температура - минимум температуры воздуха на высоте 2 м над землей.
Tmax - Максимальная температура - максимум температуры воздуха на высоте 2 м над землей.
R - Количество осадков - Количество выпавших осадков за период времени, мм. При наведении курсора мыши на число - период времени, за который выпало указанное количество осадков.
R24 - Количество осадков - Количество выпавших осадков за 24 часа, мм.
S - Снежный покров - Высота снежного покрова, см. При наведении курсора мыши на число - состояние снежного покрова и степень покрытия местности в баллах.